Probability
0 0 0 0 0 0 0 0 0 0 0 0 0 0 0 0 0 0 0 0 0 0 0 0 0 0 0 0 0 0 0 0 0 0 0 0 0 0 0 0 0 0 0 0
0 0 0 0 0 0 0 0 0 0 0 0 0 0 0 0 0 0 0 0 0 0 0 0 0 0 0 0 0 0 0 0 0 0 0 0 0 0 0 0 0 0 0 0
0 0 0 0 0 0 0 0 0 0 0 0 0 0 0 0 0 0 0 0 0 0 0 0 0 0 0 0 0 0 0 0 0 0 0 0 0 0 0 0 0 0 0 0
0 0 0 0 0 0 0 0 0 0 0 0 0 0 0 0 0 0 0 0 0 0 0 0 0 0 0 0 0 0 0 0 0 0 0 0 0 0 0 0 0 0 0 0
0 0 0 0 0 0 0 0 0 0 0 0 0 0 0 0 0 0 0 0 0 0 0 0 0 0 0 0 0 0 0 0 0 0 0 0 0 0 0 0 0 0 0 0
0 0 0 0 0 0 0 0 0 0 0 0 0 0 0 0 0 0 0 0 0 0 0 0 0 0 0 0 0 0 0 0 0 0 0 0 0 0 0 0 0 0 0 0
0 0 0 0 0 0 0 0 0 0 0 0 0 0 0 0 0 0 0 0 0 0 0 0 0 0 0 0 0 0 0 0 0 0 0 0 0 0 0 0 0 0 0 0
0 0 0 0 0 0 0 0 0 0 0 0 0 0 0 0 0 0 0 0 0 0 0 0 0 0 0 0 0 0 0 0 0 0 0 0 0 0 0 0 0 0 0 0
0 0 0 0 0 0 0 0 0 0 0 0 0 0 0 0 0 0 0 0 0 0 0 0 0 0 0 0 0 0 0 0 0 0 0 0 0 0 0 0 0 0 0 0
0 0 0 0 0 0 0 0 0 0 0 0 0 0 0 0 0 0 0 0 0 0 0 0 0 0 0 0 0 0 0 0 0 0 0 0 0 0 0 0 0 0 0 0
0 0 0 0 0 0 0 0 0 0 0 0 0 0 0 0 0 0 0 0 0 0 0 0 0 0 0 0 0 0 0 0 0 0 0 0 0 0 0 0 0 0 0 0
0 0 0 0 0 0 0 0 0 0 0 0 0 0 0 0 0 0 0 0 0 0 0 0 0 0 0 0 0 0 0 0 0 0 0 0 0 0 0 0 0 0 0 0
0 0 0 0 0 0 0 0 0 0 0 0 0 0 0 0 0 0 0 0 0 0 0 0 0 0 0 0 0 0 0 0 0 0 0 0 0 0 0 0 0 0 0 0
0 0 0 0 0 0 0 0 0 0 0 0 0 0 0 0 0 0 0 0 0 0 0 0 0 0 0 0 0 0 0 0 0 0 0 0 0 0 0 0 0 0 0 0
0 0 0 0 0 0 0 0 0 0 0 0 0 0 0 0 0 0 0 0 0 0 0 0 0 0 0 0 0 0 0 0 0 0 0 0 0 0 0 0 0 0 0 0
0 0 0 0 0 0 0 0 0 0 0 0 0 0 0 0 0 0 0 0 0 0 0 0 0 0 0 0 0 0 0 0 0 0 0 0 0 0 0 0 0 0 0 0
0 0 0 0 0 0 0 0 0 0 0 0 0 0 0 0 0 0 0 0 0 0 0 0 0 0 0 0 0 0 0 0 0 0 0 0 0 0 0 0 0 0 0 0
0 0 0 0 0 0 0 0 0 0 0 0 0 0 0 0 0 0 0 0 0 0 0 0 0 0 0 0 0 0 0 0 0 0 0 0 0 0 0 0 0 0 0 0
0 0 0 0 0 0 0 0 0 0 0 0 0 0 0 0 0 0 0 0 0 0 0 0 0 0 0 0 0 0 0 0 0 0 0 0 0 0 0 0 0 0 0 0
0 0 0 0 0 0 0 0 0 0 0 0 0 0 0 0 0 0 0 0 0 0 0 0 0 0 0 0 0 0 0 0 0 0 0 0 0 0 0 0 0 0 0 0
0 0 0 0 0 0 0 0 0 0 0 0 0 0 0 0 0 0 0 0 0 0 0 0 0 0 0 0 0 0 0 0 0 0 0 0 0 0 0 0 0 0 0 0
0 0 0 0 0 0 0 0 0 0 0 0 0 0 0 0 0 0 0 0 0 0 0 0 0 0 0 0 0 0 0 0 0 0 0 0 0 0 0 0 0 0 0 0
0 0 0 0 0 0 0 0 0 0 0 0 0 0 0 0 0 0 0 0 0 0 0 0 0 0 0 0 0 0 0 0 0 0 0 0 0 0 0 0 0 0 0 0
0 0 0 0 0 0 0 0 0 0 0 0 0 0 0 0 0 0 0 0 0 0 0 0 0 0 0 0 0 0 0 0 0 0 0 0 0 0 0 0 0 0 0 0
0 0 0 0 0 0 0 0 0 0 0 0 0 0 0 0 0 0 0 0 0 0 0 0 0 0 0 0 0 0 0 0 0 0 0 0 0 0 0 0 0 0 0 0
0 0 0 0 0 0 0 0 0 0 0 0 0 0 0 0 0 0 0 0 0 0 0 0 0 0 0 0 0 0 0 0 0 0 0 0 0 0 0 0 0 0 0 0
0 0 0 0 0 0 0 0 0 0 0 0 0 0 0 0 0 0 0 0 0 0 0 0 0 0 0 0 0 0 0 0 0 0 0 0 0 0 0 0 0 0 0 0
Wind_Speed
1 1 4 3 3 3 3 2 4 6 7 6 5 7 8 9 9 10 11 11 10 10 10 10 10 10 10 10 10 10 10 11 12 12 11 11 10 11 10 9 11 10 9 9
2 3 4 3 2 2 0 1 4 4 7 6 6 6 8 11 12 11 11 11 11 11 11 11 10 10 9 9 9 9 10 11 11 11 11 11 10 10 9 9 10 9 10 10
2 2 1 2 2 1 3 4 4 6 7 8 9 9 9 10 11 11 12 12 12 12 12 12 11 10 10 9 9 10 11 11 11 11 11 10 11 10 10 9 9 9 10 10
2 3 2 5 2 2 4 5 6 6 8 9 11 9 9 10 8 10 10 10 11 11 12 11 9 10 10 11 12 13 13 13 12 11 12 11 11 11 10 8 7 8 9 9
3 1 4 3 3 2 3 7 6 7 9 9 7 6 7 7 5 7 8 10 11 12 13 10 10 10 11 12 13 14 14 13 13 13 13 12 12 12 10 8 7 7 6 7
4 1 5 6 2 1 1 6 5 6 8 8 6 6 7 6 7 8 9 10 11 11 11 10 10 10 12 13 13 14 14 14 14 13 13 13 12 12 10 9 9 7 6 5
3 3 8 6 1 2 2 7 3 4 6 6 5 7 8 9 8 8 10 12 12 11 10 10 10 10 12 13 13 14 14 15 14 13 12 12 12 11 10 9 8 7 6 5
4 2 7 5 5 6 9 5 3 4 5 6 7 7 7 8 9 10 11 11 10 10 11 10 9 10 13 14 14 14 14 14 13 12 11 10 9 9 9 8 8 7 6 6
9 9 6 6 8 6 5 4 4 4 6 5 5 6 7 8 9 10 10 10 10 11 13 11 9 9 13 15 15 15 14 13 12 11 9 9 9 8 6 5 5 5 4 5
4 7 6 6 5 3 4 5 4 4 5 3 5 7 9 9 9 10 9 10 10 11 12 12 11 11 12 14 14 14 13 12 11 9 9 7 6 5 5 4 4 4 5 5
5 6 3 6 7 5 4 4 4 3 3 4 6 7 8 8 9 9 10 9 10 11 12 13 12 13 13 13 13 13 12 10 9 8 8 7 6 5 5 5 5 5 4 5
9 8 7 7 6 6 6 6 6 4 4 4 5 7 8 8 8 10 11 10 11 12 12 12 12 13 13 12 12 12 10 9 7 7 6 6 6 6 6 7 8 10 10 8
7 6 7 4 4 6 6 6 5 5 5 5 5 6 7 8 8 10 11 10 11 13 13 13 12 13 12 11 12 12 10 8 6 6 6 6 6 6 6 4 2 2 3 6
5 6 4 5 6 7 5 3 3 3 4 5 5 6 7 8 9 10 11 11 11 12 13 12 12 12 11 11 12 12 10 9 7 5 5 5 5 5 5 5 3 1 4 5
8 8 7 5 5 5 4 3 3 4 5 5 5 6 7 9 10 11 11 11 11 12 12 12 13 13 12 12 11 11 9 7 5 4 4 4 4 4 4 4 2 1 2 4
9 6 4 5 7 6 5 5 5 5 5 6 6 7 8 9 10 10 9 9 11 13 13 13 14 14 14 13 11 9 7 11 9 4 4 4 3 4 4 3 2 2 2 2
10 8 7 7 7 7 6 6 6 6 5 6 7 7 8 9 10 10 10 10 10 10 10 11 14 16 15 13 12 7 6 7 9 6 4 3 3 3 3 3 2 2 2 2
11 11 9 8 7 7 7 6 5 5 5 5 6 6 7 8 10 12 13 13 12 11 8 12 15 17 16 15 12 7 5 4 4 4 4 3 3 3 2 2 2 2 2 1
7 8 8 7 7 7 6 6 5 5 4 3 4 6 7 8 8 10 11 11 11 13 15 16 21 17 16 17 18 8 5 4 3 3 3 3 3 3 2 2 1 2 2 1
6 6 8 7 7 6 6 5 5 5 3 2 4 5 7 8 8 9 10 8 6 8 13 16 16 13 14 16 19 9 7 4 3 2 1 2 2 3 3 3 3 2 2 1
9 8 9 9 8 7 6 6 6 5 4 2 3 5 6 7 8 8 9 8 8 10 13 14 11 11 12 14 16 10 8 6 3 2 1 1 1 2 3 3 3 2 2 1
9 9 10 9 8 6 6 6 6 5 4 3 3 4 5 6 7 8 7 6 9 13 11 8 9 14 17 16 9 9 9 8 5 3 1 0 0 1 2 2 2 2 2 2
8 9 9 9 9 6 5 5 5 5 4 3 3 3 4 5 5 6 7 7 8 14 11 8 14 19 18 10 8 9 10 9 8 6 3 1 1 1 1 1 1 1 1 2
8 9 8 7 6 7 7 6 5 4 3 3 2 2 3 4 4 4 6 10 12 14 10 10 15 17 13 8 8 8 9 9 9 8 6 3 0 1 1 1 1 1 1 2
9 9 9 10 10 8 9 8 6 5 4 2 2 2 2 2 3 6 7 9 12 12 10 11 14 14 9 7 8 8 8 8 9 9 7 5 2 0 1 1 1 1 1 1
10 11 11 11 9 7 8 8 6 5 4 3 2 1 2 3 4 5 6 8 11 11 10 9 10 10 8 8 8 9 8 8 8 8 9 8 6 3 1 1 3 2 2 1
8 7 5 4 5 7 8 9 8 7 6 5 3 1 1 3 4 5 7 7 7 8 8 8 8 8 8 9 9 8 8 8 7 7 7 7 7 6 5 3 1 2 2 2
Wind_Direction
102 81 98 86 59 57 90 170 210 258 272 265 273 277 279 281 286 291 292 291 289 288 288 287 287 287 288 289 294 296 295 291 285 281 278 276 273 268 261 248 240 232 226 226
81 80 93 84 41 37 38 253 249 270 278 256 271 286 285 284 286 289 292 297 301 301 301 301 301 305 307 303 304 303 300 295 291 288 285 281 278 276 271 261 249 234 227 224
192 214 333 268 218 231 259 235 226 241 255 283 292 290 279 283 293 298 301 303 303 304 304 307 311 313 310 303 306 305 301 299 296 294 293 291 291 288 281 272 259 242 234 224
110 62 249 256 238 221 254 246 212 228 256 271 269 274 276 279 288 291 293 298 302 302 304 305 305 307 305 309 311 310 307 304 303 302 300 299 296 289 282 277 267 252 239 226
94 10 293 266 230 216 254 270 219 232 264 276 291 316 294 285 288 285 294 299 300 300 303 302 305 307 311 313 312 308 306 303 301 297 295 292 289 286 283 276 268 256 244 225
106 172 254 243 223 195 163 286 237 231 270 287 320 321 288 293 308 302 301 298 299 301 301 303 308 313 315 314 311 306 303 299 295 290 287 286 284 282 277 271 266 258 246 226
149 225 262 242 197 90 201 261 248 242 265 278 258 243 271 300 300 294 293 297 300 304 306 308 312 315 313 311 308 305 302 297 292 287 282 280 278 275 272 267 262 253 244 235
162 208 263 207 146 186 222 240 261 262 263 268 268 278 290 297 295 298 302 302 306 309 312 312 314 317 315 311 308 306 304 301 297 290 285 285 281 280 272 266 254 242 235 239
187 211 236 198 200 215 195 223 245 246 264 276 281 287 291 288 290 297 299 302 309 313 313 315 317 317 314 312 311 310 310 310 307 302 293 285 282 283 276 260 247 232 228 237
243 262 243 233 237 242 209 217 239 253 271 267 271 279 285 286 292 301 302 308 312 314 315 318 321 319 313 312 313 313 317 320 319 316 311 300 291 283 274 263 251 237 228 230
250 272 271 253 231 222 219 227 250 264 253 257 266 276 280 290 299 303 306 309 312 313 313 315 320 319 317 317 318 320 322 325 327 326 321 315 307 291 275 259 248 245 239 225
219 218 194 233 225 197 204 225 233 238 251 258 259 273 289 295 296 301 306 309 314 314 313 315 317 315 317 320 322 323 325 328 328 328 328 323 319 314 287 268 268 253 245 238
207 195 187 220 201 189 200 219 224 225 242 262 275 281 290 293 294 302 306 312 316 315 312 311 312 314 317 321 322 322 321 320 316 321 324 324 323 320 320 319 326 333 290 243
188 145 179 206 202 200 198 202 205 237 254 260 271 287 292 291 298 307 311 316 316 314 311 310 312 316 318 316 315 316 316 314 313 302 308 314 315 314 313 316 323 3 36 38
194 187 197 199 187 182 181 182 213 257 265 273 275 285 293 302 307 310 312 315 317 316 316 318 319 320 320 315 308 308 308 305 300 295 299 304 309 313 319 329 340 38 63 51
187 195 194 180 188 196 195 208 229 253 260 266 279 289 296 300 302 304 307 315 322 320 319 321 322 321 319 315 308 300 295 305 316 307 307 317 326 329 336 347 5 43 70 75
160 188 196 202 207 206 208 214 222 241 254 266 279 294 306 313 316 319 323 326 319 310 313 323 324 322 321 320 315 300 286 294 314 320 313 310 318 329 336 346 8 50 62 90
188 185 176 178 185 199 214 223 231 237 243 260 289 304 312 317 319 321 324 325 324 323 329 334 329 326 324 327 325 311 290 278 291 305 312 314 316 320 328 346 30 70 81 110
184 177 176 175 172 177 196 214 224 224 235 266 294 302 304 306 309 313 318 322 330 334 337 335 330 329 328 330 332 321 311 291 286 297 309 326 344 359 4 12 44 85 113 134
177 168 162 162 168 177 194 205 199 201 219 255 288 302 310 314 317 319 319 315 318 326 325 326 328 330 331 329 332 327 328 319 303 295 308 345 5 18 25 28 41 67 100 127
178 166 163 171 185 195 197 190 182 192 209 243 280 296 304 310 319 322 321 324 332 332 329 326 334 335 332 329 326 332 339 339 328 307 290 317 17 36 45 49 53 59 62 63
178 171 175 180 185 197 195 181 177 180 194 238 274 292 307 317 323 320 310 308 321 327 329 329 339 339 337 334 333 338 343 347 344 329 307 259 148 76 58 56 54 52 56 58
176 175 178 187 191 192 177 177 179 181 198 224 257 289 304 306 309 314 324 324 325 327 327 326 334 338 340 340 340 343 346 349 348 346 333 287 202 171 131 83 75 76 71 67
174 177 187 189 168 164 179 188 185 192 203 214 236 282 304 312 310 300 310 316 324 327 327 326 330 338 341 346 349 350 350 349 347 345 344 340 243 175 167 150 144 135 120 107
182 187 190 188 190 193 187 174 172 190 204 213 242 300 305 290 297 313 321 325 331 333 332 333 337 341 348 353 358 357 354 353 349 344 344 347 352 210 175 172 177 174 161 150
195 204 208 203 194 179 169 168 176 187 196 200 207 276 314 319 319 322 328 333 338 338 339 341 345 348 354 357 1 1 359 356 355 353 349 349 351 355 329 198 193 190 190 191
223 221 209 187 172 168 170 173 177 184 191 184 173 185 322 332 333 333 338 343 346 345 344 344 349 353 356 359 0 2 4 3 360 355 351 349 348 347 346 335 241 180 172 173